Location: Devore Heights
(34.2372°N, 117.4156°W)
Time: 08:42:44
(UTC+00:00)

Altair - Pass Details

Date: 21 September 2024
Orbit: 1501 x 1682 km, 47.2° (Epoch: 07 October)

Event Time Altitude Azimuth Distance (km) Brightness Sun altitude
Rises 15:17:56 0° 305° (NW) 4,935 9.6 19.7°
Reaches altitude 10° 15:21:07 10° 303° (WNW) 3,947 9.2 20.4°
Maximum altitude 15:31:14 74° 222° (SW) 1,728 8.1 22.4°
Drops below altitude 10° 15:41:08 10° 139° (SE) 3,866 10.7 24.4°
Sets 15:44:14 0° 137° (SE) 4,829 11.1 25.0°
